| time (UTC) | temp F | wind direction | speed knots | gust knots | rain 1hr in | rain 24hr in | rain mn in | humidity % | barometer mb |
| 20260508234416 | 49 | 222 | 0.0 | 1.7 | 0.00 | 0.09 | 0.09 | 53 | 1008.5 |
| 20260508233854 | 50 | 222 | 0.0 | 1.7 | 0.00 | 0.09 | 0.09 | 56 | 1008.5 |
| 20260508233344 | 50 | 222 | 0.0 | 3.5 | 0.00 | 0.09 | 0.09 | 54 | 1008.5 |
| 20260508232843 | 50 | 182 | 1.7 | 3.5 | 0.00 | 0.09 | 0.09 | 56 | 1008.5 |
| 20260508232346 | 50 | 223 | 0.9 | 3.5 | 0.00 | 0.09 | 0.09 | 55 | 1008.4 |
| 20260508231853 | 50 | 229 | 1.7 | 3.5 | 0.00 | 0.09 | 0.09 | 58 | 1008.5 |
| 20260508231340 | 50 | 185 | 0.9 | 3.5 | 0.00 | 0.09 | 0.09 | 53 | 1008.4 |
| 20260508230834 | 50 | 178 | 0.9 | 4.3 | 0.00 | 0.09 | 0.09 | 52 | 1008.4 |
| 20260508230331 | 51 | 248 | 2.6 | 6.1 | 0.00 | 0.09 | 0.09 | 48 | 1008.4 |
| 20260508225844 | 51 | 211 | 2.6 | 6.1 | 0.00 | 0.09 | 0.09 | 49 | 1008.4 |
| 20260508225340 | 51 | 329 | 2.6 | 3.5 | 0.00 | 0.09 | 0.09 | 46 | 1008.4 |
| 20260508224840 | 51 | 172 | 0.9 | 3.5 | 0.00 | 0.09 | 0.09 | 49 | 1008.4 |
| 20260508224340 | 52 | 240 | 1.7 | 3.5 | 0.00 | 0.09 | 0.09 | 48 | 1008.5 |
| 20260508223836 | 52 | 194 | 1.7 | 6.1 | 0.00 | 0.09 | 0.09 | 47 | 1008.6 |
| 20260508223352 | 52 | 232 | 2.6 | 7.8 | 0.00 | 0.09 | 0.09 | 44 | 1008.6 |
| 20260508222843 | 53 | 207 | 1.7 | 9.6 | 0.00 | 0.09 | 0.09 | 47 | 1008.6 |
| 20260508222335 | 53 | 234 | 3.5 | 9.6 | 0.00 | 0.09 | 0.09 | 43 | 1008.5 |
| 20260508221837 | 53 | 271 | 1.7 | 8.7 | 0.00 | 0.09 | 0.09 | 44 | 1008.5 |
| 20260508221339 | 53 | 270 | 1.7 | 7.0 | 0.00 | 0.09 | 0.09 | 45 | 1008.4 |
| 20260508220857 | 53 | 223 | 3.5 | 7.0 | 0.00 | 0.09 | 0.09 | 41 | 1008.4 |
| 20260508220347 | 53 | 236 | 3.5 | 7.8 | 0.00 | 0.09 | 0.09 | 42 | 1008.4 |
| 20260508215834 | 53 | 238 | 3.5 | 8.7 | 0.00 | 0.09 | 0.09 | 42 | 1008.4 |
| 20260508215407 | 54 | 216 | 5.2 | 8.7 | 0.00 | 0.09 | 0.09 | 40 | 1008.5 |
| 20260508214842 | 54 | 13 | 0.9 | 7.8 | 0.00 | 0.09 | 0.09 | 45 | 1008.4 |
| 20260508214338 | 53 | 215 | 1.7 | 7.8 | 0.00 | 0.09 | 0.09 | 42 | 1008.4 |
| 20260508213844 | 54 | 289 | 2.6 | 7.0 | 0.00 | 0.09 | 0.09 | 40 | 1008.4 |
| 20260508213350 | 54 | 219 | 3.5 | 7.0 | 0.00 | 0.09 | 0.09 | 44 | 1008.4 |
| 20260508212906 | 54 | 209 | 1.7 | 7.0 | 0.00 | 0.09 | 0.09 | 44 | 1008.5 |
| 20260508212349 | 54 | 299 | 0.9 | 7.8 | 0.00 | 0.09 | 0.09 | 39 | 1008.4 |
| 20260508211911 | 54 | 253 | 3.5 | 7.8 | 0.00 | 0.09 | 0.09 | 39 | 1008.4 |
| 20260508211345 | 54 | 242 | 1.7 | 4.3 | 0.00 | 0.09 | 0.09 | 41 | 1008.4 |
| 20260508210833 | 55 | 63 | 1.7 | 4.3 | 0.00 | 0.09 | 0.09 | 36 | 1008.4 |
| 20260508210336 | 55 | 136 | 0.9 | 6.1 | 0.00 | 0.09 | 0.09 | 39 | 1008.5 |
| 20260508205848 | 54 | 194 | 1.7 | 6.1 | 0.00 | 0.09 | 0.09 | 39 | 1008.5 |
| 20260508205348 | 54 | 203 | 1.7 | 7.0 | 0.00 | 0.09 | 0.09 | 38 | 1008.6 |
| 20260508204840 | 54 | 237 | 1.7 | 7.0 | 0.00 | 0.09 | 0.09 | 41 | 1008.6 |
| 20260508204340 | 54 | 56 | 1.7 | 3.5 | 0.00 | 0.09 | 0.09 | 40 | 1008.6 |
| 20260508203835 | 55 | 22 | 0.9 | 5.2 | 0.00 | 0.09 | 0.09 | 39 | 1008.6 |
| 20260508203358 | 54 | 288 | 2.6 | 5.2 | 0.00 | 0.09 | 0.09 | 39 | 1008.6 |
| 20260508202853 | 54 | 178 | 1.7 | 9.6 | 0.00 | 0.09 | 0.09 | 42 | 1008.7 |
| 20260508202344 | 54 | 311 | 4.3 | 9.6 | 0.00 | 0.09 | 0.09 | 36 | 1008.6 |
| 20260508201844 | 54 | 227 | 2.6 | 10.4 | 0.00 | 0.09 | 0.09 | 43 | 1008.6 |
| 20260508201338 | 54 | 240 | 5.2 | 10.4 | 0.00 | 0.09 | 0.09 | 42 | 1008.7 |
| 20260508200358 | 54 | 183 | 2.6 | 9.6 | 0.00 | 0.09 | 0.09 | 41 | 1008.9 |
| 20260508195847 | 55 | 209 | 2.6 | 8.7 | 0.00 | 0.09 | 0.09 | 38 | 1008.8 |
| 20260508195345 | 54 | 189 | 1.7 | 6.1 | 0.00 | 0.09 | 0.09 | 42 | 1008.9 |
| 20260508194839 | 55 | 209 | 3.5 | 6.1 | 0.00 | 0.09 | 0.09 | 42 | 1008.9 |
| 20260508194401 | 54 | 277 | 1.7 | 7.8 | 0.00 | 0.09 | 0.09 | 43 | 1008.9 |
| 20260508193845 | 54 | 211 | 2.6 | 7.8 | 0.00 | 0.09 | 0.09 | 41 | 1009.0 |
| 20260508193344 | 54 | 180 | 2.6 | 5.2 | 0.00 | 0.09 | 0.09 | 48 | 1009.0 |
| 20260508192911 | 54 | 84 | 2.6 | 6.1 | 0.00 | 0.09 | 0.09 | 43 | 1009.1 |
| 20260508192346 | 54 | 250 | 2.6 | 6.1 | 0.00 | 0.09 | 0.09 | 43 | 1009.2 |
| 20260508191844 | 53 | 52 | 1.7 | 7.0 | 0.00 | 0.09 | 0.09 | 42 | 1009.2 |
| 20260508191335 | 54 | 312 | 3.5 | 7.0 | 0.00 | 0.09 | 0.09 | 40 | 1009.3 |
| 20260508190837 | 54 | 233 | 3.5 | 7.0 | 0.00 | 0.09 | 0.09 | 42 | 1009.3 |
| 20260508190334 | 54 | 206 | 1.7 | 6.1 | 0.00 | 0.09 | 0.09 | 47 | 1009.3 |
| 20260508185848 | 55 | 177 | 1.7 | 4.3 | 0.00 | 0.09 | 0.09 | 46 | 1009.4 |
| 20260508185350 | 54 | 216 | 1.7 | 4.3 | 0.00 | 0.09 | 0.09 | 53 | 1009.4 |
| 20260508184847 | 53 | 211 | 1.7 | 7.8 | 0.00 | 0.09 | 0.09 | 49 | 1009.5 |
| 20260508184350 | 54 | 249 | 2.6 | 4.3 | 0.00 | 0.09 | 0.09 | 52 | 1009.4 |
| 20260508183847 | 52 | 67 | 1.7 | 7.0 | 0.00 | 0.09 | 0.09 | 55 | 1009.7 |
| 20260508183346 | 52 | 239 | 2.6 | 7.0 | 0.00 | 0.09 | 0.09 | 52 | 1009.7 |
| 20260508182852 | 52 | 241 | 1.7 | 8.7 | 0.00 | 0.09 | 0.09 | 53 | 1009.6 |
| 20260508182350 | 52 | 275 | 3.5 | 8.7 | 0.00 | 0.09 | 0.09 | 54 | 1009.6 |
| 20260508181847 | 52 | 245 | 2.6 | 6.1 | 0.00 | 0.09 | 0.09 | 54 | 1009.7 |
| 20260508181346 | 52 | 92 | 2.6 | 7.8 | 0.00 | 0.09 | 0.09 | 53 | 1009.5 |
| 20260508180835 | 52 | 157 | 3.5 | 7.8 | 0.00 | 0.09 | 0.09 | 51 | 1009.5 |
| 20260508180353 | 52 | 312 | 1.7 | 5.2 | 0.00 | 0.09 | 0.09 | 55 | 1009.6 |
| 20260508175840 | 52 | 233 | 2.6 | 5.2 | 0.00 | 0.09 | 0.09 | 52 | 1009.7 |
| 20260508175358 | 51 | 184 | 1.7 | 11.3 | 0.00 | 0.09 | 0.09 | 54 | 1009.7 |
| 20260508174850 | 52 | 293 | 2.6 | 11.3 | 0.00 | 0.09 | 0.09 | 54 | 1009.7 |
| 20260508174344 | 52 | 338 | 2.6 | 7.8 | 0.00 | 0.09 | 0.09 | 60 | 1009.7 |
| 20260508173850 | 51 | 24 | 3.5 | 7.8 | 0.00 | 0.09 | 0.09 | 57 | 1009.7 |
| 20260508173340 | 51 | 330 | 2.6 | 5.2 | 0.00 | 0.09 | 0.09 | 56 | 1009.8 |
| 20260508172841 | 51 | 219 | 2.6 | 6.1 | 0.00 | 0.09 | 0.09 | 55 | 1009.9 |
| 20260508172356 | 50 | 221 | 2.6 | 6.1 | 0.00 | 0.09 | 0.09 | 58 | 1009.9 |
| 20260508171856 | 50 | 49 | 0.9 | 3.5 | 0.00 | 0.09 | 0.09 | 60 | 1010.0 |
| 20260508171352 | 51 | 321 | 1.7 | 4.3 | 0.00 | 0.09 | 0.09 | 60 | 1010.0 |
| 20260508170844 | 50 | 202 | 2.6 | 9.6 | 0.00 | 0.09 | 0.09 | 62 | 1010.1 |
| 20260508170407 | 49 | 153 | 2.6 | 9.6 | 0.00 | 0.09 | 0.09 | 56 | 1010.1 |
| 20260508165852 | 50 | 156 | 4.3 | 7.8 | 0.00 | 0.09 | 0.09 | 60 | 1010.2 |
| 20260508165353 | 49 | 231 | 2.6 | 5.2 | 0.00 | 0.09 | 0.09 | 60 | 1010.2 |
| 20260508164851 | 49 | 348 | 1.7 | 6.1 | 0.00 | 0.09 | 0.09 | 60 | 1010.2 |
| 20260508164350 | 50 | 107 | 2.6 | 5.2 | 0.00 | 0.09 | 0.09 | 59 | 1010.2 |
| 20260508163848 | 50 | 219 | 2.6 | 7.0 | 0.00 | 0.09 | 0.09 | 57 | 1010.3 |
| 20260508163345 | 50 | 234 | 2.6 | 6.1 | 0.00 | 0.09 | 0.09 | 69 | 1010.3 |
| 20260508162841 | 49 | 178 | 2.6 | 9.6 | 0.00 | 0.09 | 0.09 | 66 | 1010.3 |
| 20260508162345 | 49 | 46 | 1.7 | 9.6 | 0.00 | 0.09 | 0.09 | 67 | 1010.3 |
| 20260508161837 | 49 | 332 | 3.5 | 7.0 | 0.00 | 0.09 | 0.09 | 71 | 1010.5 |
| 20260508161344 | 48 | 271 | 2.6 | 7.0 | 0.00 | 0.09 | 0.09 | 68 | 1010.5 |
| 20260508160846 | 47 | 45 | 3.5 | 6.1 | 0.00 | 0.09 | 0.09 | 68 | 1010.6 |
| 20260508160349 | 47 | 207 | 1.7 | 4.3 | 0.00 | 0.09 | 0.09 | 70 | 1010.6 |
| 20260508155836 | 47 | 218 | 1.7 | 4.3 | 0.00 | 0.09 | 0.09 | 75 | 1010.7 |
| 20260508155357 | 46 | 206 | 1.7 | 3.5 | 0.00 | 0.09 | 0.09 | 75 | 1010.8 |
| 20260508154850 | 46 | 288 | 0.9 | 3.5 | 0.00 | 0.09 | 0.09 | 74 | 1010.7 |
| 20260508154342 | 46 | 184 | 1.7 | 5.2 | 0.00 | 0.09 | 0.09 | 77 | 1010.6 |
| 20260508153844 | 48 | 75 | 1.7 | 5.2 | 0.00 | 0.09 | 0.09 | 74 | 1010.6 |
| 20260508153338 | 47 | 206 | 3.5 | 4.3 | 0.00 | 0.09 | 0.09 | 78 | 1010.7 |
| 20260508152854 | 46 | 344 | 1.7 | 3.5 | 0.00 | 0.09 | 0.09 | 80 | 1010.7 |
| 20260508152349 | 45 | 22 | 0.9 | 6.1 | 0.00 | 0.09 | 0.09 | 81 | 1010.7 |
| 20260508151852 | 45 | 269 | 1.7 | 6.1 | 0.00 | 0.09 | 0.09 | 80 | 1010.7 |
| 20260508151352 | 45 | 355 | 1.7 | 3.5 | 0.00 | 0.09 | 0.09 | 82 | 1010.6 |
| 20260508150911 | 45 | 14 | 1.7 | 5.2 | 0.00 | 0.09 | 0.09 | 82 | 1010.6 |
| 20260508150348 | 45 | 222 | 2.6 | 5.2 | 0.00 | 0.09 | 0.09 | 85 | 1010.6 |
| 20260508145913 | 45 | 182 | 2.6 | 4.3 | 0.00 | 0.09 | 0.09 | 86 | 1010.6 |
| 20260508145355 | 44 | 222 | 1.7 | 5.2 | 0.00 | 0.09 | 0.09 | 88 | 1010.7 |
| 20260508144835 | 44 | 171 | 0.9 | 6.1 | 0.00 | 0.09 | 0.09 | 88 | 1010.6 |
| 20260508144334 | 44 | 181 | 0.9 | 4.3 | 0.00 | 0.09 | 0.09 | 90 | 1010.6 |
| 20260508143906 | 43 | 155 | 0.9 | 5.2 | 0.00 | 0.09 | 0.09 | 91 | 1010.6 |
| 20260508143342 | 43 | 155 | 2.6 | 5.2 | 0.00 | 0.09 | 0.09 | 93 | 1010.6 |
| 20260508142856 | 42 | 71 | 1.7 | 5.2 | 0.00 | 0.09 | 0.09 | 91 | 1010.6 |
| 20260508142351 | 42 | 121 | 1.7 | 3.5 | 0.00 | 0.09 | 0.09 | 94 | 1010.6 |
| 20260508141842 | 41 | 323 | 0.0 | 1.7 | 0.00 | 0.09 | 0.09 | 93 | 1010.7 |
| 20260508141343 | 41 | 126 | 0.0 | 2.6 | 0.00 | 0.09 | 0.09 | 93 | 1010.7 |
| 20260508140840 | 41 | 126 | 1.7 | 2.6 | 0.00 | 0.09 | 0.09 | 93 | 1010.7 |
| 20260508140336 | 40 | 200 | 0.0 | 1.7 | 0.00 | 0.09 | 0.09 | 92 | 1010.7 |
| 20260508135851 | 40 | 200 | 0.0 | 1.7 | 0.00 | 0.09 | 0.09 | 93 | 1010.6 |
| 20260508135334 | 40 | 200 | 0.0 | 0.9 | 0.00 | 0.09 | 0.09 | 93 | 1010.6 |
| 20260508134841 | 40 | 200 | 0.0 | 0.9 | 0.00 | 0.09 | 0.09 | 93 | 1010.5 |
| 20260508134335 | 40 | 200 | 0.0 | 0.9 | 0.00 | 0.09 | 0.09 | 93 | 1010.5 |
| 20260508133840 | 40 | 200 | 0.0 | 2.6 | 0.00 | 0.09 | 0.09 | 93 | 1010.3 |
| 20260508133407 | 39 | 200 | 0.9 | 3.5 | 0.00 | 0.09 | 0.09 | 93 | 1010.4 |
| 20260508132853 | 39 | 223 | 1.7 | 3.5 | 0.00 | 0.09 | 0.09 | 93 | 1010.4 |
| 20260508132403 | 40 | 345 | 0.0 | 0.0 | 0.00 | 0.09 | 0.09 | 94 | 1010.6 |
| 20260508131858 | 40 | 337 | 0.0 | 1.7 | 0.00 | 0.09 | 0.09 | 94 | 1010.6 |
| 20260508131413 | 39 | 337 | 0.9 | 1.7 | 0.00 | 0.09 | 0.09 | 94 | 1010.6 |
| 20260508130918 | 39 | 61 | 0.9 | 1.7 | 0.00 | 0.09 | 0.09 | 94 | 1010.3 |
| 20260508130331 | 38 | 49 | 0.0 | 3.5 | 0.00 | 0.09 | 0.09 | 93 | 1010.4 |
| 20260508125842 | 38 | 49 | 0.9 | 3.5 | 0.01 | 0.09 | 0.09 | 94 | 1010.5 |
| 20260508125339 | 38 | 65 | 0.0 | 2.6 | 0.01 | 0.09 | 0.09 | 93 | 1010.5 |
| 20260508124840 | 38 | 313 | 0.9 | 2.6 | 0.02 | 0.09 | 0.09 | 93 | 1010.4 |
| 20260508124340 | 38 | 212 | 0.9 | 4.3 | 0.03 | 0.09 | 0.09 | 93 | 1010.2 |
| 20260508123844 | 38 | 11 | 1.7 | 4.3 | 0.05 | 0.09 | 0.09 | 93 | 1010.4 |
| 20260508123357 | 38 | 282 | 0.0 | 3.5 | 0.05 | 0.09 | 0.09 | 93 | 1010.5 |
| 20260508122854 | 38 | 306 | 0.9 | 3.5 | 0.05 | 0.09 | 0.09 | 93 | 1010.5 |
| 20260508122357 | 38 | 290 | 0.9 | 3.5 | 0.05 | 0.09 | 0.09 | 93 | 1010.3 |
| 20260508121847 | 38 | 24 | 1.7 | 2.6 | 0.05 | 0.09 | 0.09 | 94 | 1010.3 |
| 20260508121340 | 38 | 284 | 0.0 | 0.0 | 0.05 | 0.09 | 0.09 | 94 | 1010.4 |
| 20260508120844 | 38 | 284 | 0.0 | 1.7 | 0.05 | 0.09 | 0.09 | 94 | 1010.3 |
| 20260508120336 | 38 | 284 | 0.0 | 3.5 | 0.05 | 0.09 | 0.09 | 94 | 1010.3 |
| 20260508115844 | 38 | 282 | 0.9 | 3.5 | 0.04 | 0.08 | 0.08 | 93 | 1010.2 |
| 20260508115348 | 38 | 277 | 0.9 | 3.5 | 0.04 | 0.08 | 0.08 | 93 | 1010.2 |
| 20260508114342 | 39 | 165 | 0.0 | 0.0 | 0.02 | 0.06 | 0.06 | 94 | 1010.4 |
| 20260508113840 | 39 | 165 | 0.0 | 0.9 | 0.00 | 0.04 | 0.04 | 94 | 1010.2 |
| 20260508113336 | 39 | 165 | 0.0 | 0.9 | 0.00 | 0.04 | 0.04 | 94 | 1010.2 |
| 20260508112859 | 39 | 165 | 0.0 | 1.7 | 0.01 | 0.04 | 0.04 | 94 | 1009.5 |
| 20260508112348 | 39 | 165 | 0.0 | 1.7 | 0.01 | 0.04 | 0.04 | 94 | 1009.5 |
| 20260508111847 | 39 | 165 | 0.0 | 0.0 | 0.01 | 0.04 | 0.04 | 94 | 1009.4 |
| 20260508111407 | 39 | 165 | 0.0 | 0.0 | 0.03 | 0.04 | 0.04 | 93 | 1009.7 |
| 20260508110844 | 39 | 165 | 0.0 | 1.7 | 0.03 | 0.04 | 0.04 | 93 | 1009.7 |
| 20260508110340 | 39 | 165 | 0.0 | 1.7 | 0.03 | 0.04 | 0.04 | 93 | 1009.6 |
| 20260508105917 | 39 | 71 | 0.0 | 1.7 | 0.03 | 0.04 | 0.04 | 93 | 1009.6 |
| 20260508105351 | 38 | 71 | 0.0 | 0.0 | 0.03 | 0.04 | 0.04 | 93 | 1009.6 |
| 20260508104840 | 38 | 71 | 0.0 | 0.0 | 0.03 | 0.04 | 0.04 | 93 | 1009.6 |
| 20260508104342 | 38 | 71 | 0.0 | 0.0 | 0.03 | 0.04 | 0.04 | 92 | 1009.7 |
| 20260508103841 | 38 | 71 | 0.0 | 0.0 | 0.03 | 0.04 | 0.04 | 92 | 1009.5 |
| 20260508103342 | 39 | 71 | 0.0 | 0.0 | 0.03 | 0.04 | 0.04 | 93 | 1009.4 |
| 20260508102846 | 39 | 71 | 0.0 | 0.0 | 0.02 | 0.03 | 0.03 | 93 | 1009.4 |
| 20260508102335 | 39 | 71 | 0.0 | 0.0 | 0.02 | 0.03 | 0.03 | 93 | 1009.2 |
| 20260508101840 | 39 | 71 | 0.0 | 0.0 | 0.01 | 0.02 | 0.02 | 93 | 1009.2 |
| 20260508101359 | 39 | 71 | 0.0 | 0.0 | 0.00 | 0.01 | 0.01 | 93 | 1009.2 |
| 20260508100834 | 39 | 71 | 0.0 | 0.0 | 0.00 | 0.01 | 0.01 | 93 | 1009.2 |
| 20260508100350 | 39 | 71 | 0.0 | 0.0 | 0.00 | 0.01 | 0.01 | 93 | 1009.2 |
| 20260508095836 | 38 | 71 | 0.0 | 0.0 | 0.00 | 0.01 | 0.01 | 93 | 1008.8 |
| 20260508095347 | 38 | 71 | 0.0 | 0.0 | 0.00 | 0.01 | 0.01 | 93 | 1008.6 |
| 20260508094858 | 38 | 71 | 0.0 | 0.0 | 0.00 | 0.01 | 0.01 | 92 | 1008.7 |
| 20260508094351 | 38 | 71 | 0.0 | 0.0 | 0.00 | 0.01 | 0.01 | 92 | 1008.7 |
| 20260508093847 | 38 | 71 | 0.0 | 0.0 | 0.00 | 0.01 | 0.01 | 92 | 1008.9 |
| 20260508093333 | 39 | 71 | 0.0 | 0.0 | 0.00 | 0.01 | 0.01 | 92 | 1009.0 |
| 20260508092847 | 39 | 71 | 0.0 | 0.0 | 0.00 | 0.01 | 0.01 | 92 | 1008.9 |
| 20260508092408 | 39 | 71 | 0.0 | 0.0 | 0.00 | 0.01 | 0.01 | 92 | 1009.2 |
| 20260508091909 | 39 | 71 | 0.0 | 0.0 | 0.00 | 0.01 | 0.01 | 92 | 1009.5 |
| 20260508091341 | 39 | 71 | 0.0 | 0.0 | 0.00 | 0.01 | 0.01 | 92 | 1009.3 |
| 20260508090836 | 38 | 71 | 0.0 | 0.0 | 0.00 | 0.01 | 0.01 | 92 | 1009.1 |
| 20260508090348 | 38 | 71 | 0.0 | 0.0 | 0.00 | 0.01 | 0.01 | 92 | 1009.2 |
| 20260508085841 | 38 | 71 | 0.0 | 0.0 | 0.00 | 0.01 | 0.01 | 92 | 1009.2 |
| 20260508085343 | 38 | 71 | 0.0 | 0.0 | 0.00 | 0.01 | 0.01 | 93 | 1009.2 |
| 20260508084843 | 38 | 71 | 0.0 | 0.0 | 0.00 | 0.01 | 0.01 | 93 | 1009.5 |
| 20260508084342 | 38 | 71 | 0.0 | 0.0 | 0.01 | 0.01 | 0.01 | 93 | 1009.6 |
| 20260508083838 | 38 | 71 | 0.0 | 0.0 | 0.01 | 0.01 | 0.01 | 93 | 1009.7 |
| 20260508083341 | 38 | 71 | 0.0 | 0.0 | 0.01 | 0.01 | 0.01 | 93 | 1009.5 |
| 20260508082834 | 38 | 71 | 0.0 | 0.0 | 0.01 | 0.01 | 0.01 | 93 | 1009.5 |
| 20260508082354 | 38 | 71 | 0.0 | 0.0 | 0.01 | 0.01 | 0.01 | 93 | 1009.5 |
| 20260508081835 | 38 | 71 | 0.0 | 0.0 | 0.01 | 0.01 | 0.01 | 92 | 1009.7 |
| 20260508081354 | 38 | 71 | 0.0 | 0.0 | 0.01 | 0.01 | 0.01 | 92 | 1009.7 |
| 20260508080852 | 39 | 71 | 0.0 | 0.0 | 0.01 | 0.01 | 0.01 | 92 | 1009.5 |
| 20260508080334 | 39 | 71 | 0.0 | 0.0 | 0.01 | 0.01 | 0.01 | 92 | 1009.4 |
| 20260508075843 | 39 | 71 | 0.0 | 1.7 | 0.01 | 0.01 | 0.01 | 93 | 1009.5 |
| 20260508075402 | 39 | 71 | 0.0 | 1.7 | 0.01 | 0.01 | 0.01 | 93 | 1009.8 |
| 20260508074835 | 39 | 71 | 0.0 | 1.7 | 0.00 | 0.00 | 0.00 | 93 | 1009.9 |
| 20260508074338 | 39 | 71 | 0.0 | 2.6 | 0.00 | 0.00 | 0.00 | 93 | 1009.9 |
| 20260508073836 | 39 | 71 | 0.9 | 3.5 | 0.00 | 0.00 | 0.00 | 93 | 1009.8 |
| 20260508073400 | 39 | 249 | 0.9 | 4.3 | 0.00 | 0.00 | 0.00 | 93 | 1010.1 |
| 20260508072835 | 39 | 226 | 1.7 | 4.3 | 0.00 | 0.00 | 0.00 | 93 | 1009.8 |
| 20260508072352 | 39 | 231 | 0.0 | 2.6 | 0.00 | 0.00 | 0.00 | 94 | 1009.8 |
| 20260508071911 | 39 | 225 | 0.9 | 1.7 | 0.00 | 0.00 | 0.00 | 94 | 1009.7 |
| 20260508071410 | 39 | 225 | 0.0 | 1.7 | 0.00 | 0.00 | 0.00 | 94 | 1009.7 |
| 20260508070845 | 39 | 225 | 0.0 | 1.7 | 0.00 | 0.00 | 0.00 | 94 | 1009.5 |
| 20260508070344 | 39 | 225 | 0.0 | 1.7 | 0.00 | 0.00 | 0.00 | 94 | 1009.6 |
| 20260508065847 | 39 | 225 | 0.9 | 1.7 | 0.00 | 0.00 | 0.00 | 94 | 1009.5 |
| 20260508065415 | 39 | 225 | 0.9 | 2.6 | 0.00 | 0.00 | 0.00 | 94 | 1009.7 |
| 20260508064852 | 39 | 225 | 0.9 | 2.6 | 0.00 | 0.00 | 0.00 | 94 | 1009.7 |
| 20260508064349 | 39 | 225 | 0.0 | 1.7 | 0.00 | 0.00 | 0.00 | 94 | 1009.7 |
| 20260508063839 | 39 | 225 | 0.0 | 1.7 | 0.00 | 0.00 | 0.00 | 94 | 1009.8 |
| 20260508063345 | 39 | 227 | 0.9 | 1.7 | 0.00 | 0.00 | 0.00 | 94 | 1009.8 |
| 20260508062846 | 39 | 227 | 0.0 | 1.7 | 0.00 | 0.00 | 0.00 | 94 | 1009.8 |
| 20260508062347 | 38 | 227 | 0.0 | 2.6 | 0.00 | 0.00 | 0.00 | 94 | 1009.8 |
| 20260508061843 | 39 | 227 | 0.9 | 2.6 | 0.00 | 0.00 | 0.00 | 94 | 1009.9 |
| 20260508061340 | 39 | 209 | 0.9 | 2.6 | 0.00 | 0.00 | 0.00 | 94 | 1009.9 |
| 20260508060855 | 39 | 209 | 1.7 | 2.6 | 0.00 | 0.00 | 0.00 | 94 | 1009.9 |
| 20260508060348 | 39 | 209 | 0.0 | 1.7 | 0.00 | 0.00 | 0.00 | 94 | 1009.9 |
| 20260508055834 | 39 | 209 | 0.0 | 2.6 | 0.00 | 0.00 | 0.00 | 94 | 1009.9 |
| 20260508055354 | 39 | 208 | 0.9 | 2.6 | 0.00 | 0.00 | 0.00 | 94 | 1010.0 |
| 20260508054846 | 39 | 250 | 1.7 | 2.6 | 0.00 | 0.00 | 0.00 | 94 | 1010.0 |
| 20260508054416 | 39 | 225 | 1.7 | 2.6 | 0.00 | 0.00 | 0.00 | 94 | 1010.1 |
| 20260508053909 | 39 | 225 | 0.9 | 2.6 | 0.00 | 0.00 | 0.00 | 94 | 1010.1 |
| 20260508053348 | 39 | 225 | 0.9 | 1.7 | 0.00 | 0.00 | 0.00 | 94 | 1010.1 |
| 20260508052852 | 39 | 225 | 0.0 | 0.9 | 0.00 | 0.00 | 0.00 | 94 | 1010.1 |
| 20260508052404 | 39 | 225 | 0.0 | 3.5 | 0.00 | 0.00 | 0.00 | 94 | 1010.0 |
| 20260508051845 | 39 | 224 | 1.7 | 4.3 | 0.00 | 0.00 | 0.00 | 94 | 1010.3 |
| 20260508051346 | 39 | 254 | 1.7 | 4.3 | 0.00 | 0.00 | 0.00 | 94 | 1010.3 |
| 20260508050848 | 38 | 236 | 2.6 | 4.3 | 0.00 | 0.00 | 0.00 | 94 | 1010.3 |
| 20260508045842 | 38 | 231 | 0.9 | 4.3 | 0.00 | 0.00 | 0.00 | 94 | 1010.2 |
| 20260508045337 | 38 | 234 | 1.7 | 3.5 | 0.00 | 0.00 | 0.00 | 94 | 1010.3 |
| 20260508044838 | 38 | 225 | 0.9 | 4.3 | 0.00 | 0.00 | 0.00 | 94 | 1010.3 |
| 20260508044357 | 37 | 261 | 1.7 | 2.6 | 0.00 | 0.00 | 0.00 | 94 | 1010.4 |
| 20260508043918 | 37 | 242 | 1.7 | 4.3 | 0.00 | 0.00 | 0.00 | 93 | 1010.2 |
| 20260508043355 | 37 | 221 | 1.7 | 4.3 | 0.00 | 0.00 | 0.00 | 93 | 1010.3 |
| 20260508042914 | 37 | 219 | 0.0 | 0.0 | 0.00 | 0.00 | 0.00 | 93 | 1010.2 |
| 20260508042340 | 38 | 219 | 0.0 | 0.0 | 0.00 | 0.00 | 0.00 | 93 | 1010.2 |
| 20260508041854 | 37 | 219 | 0.0 | 0.0 | 0.00 | 0.00 | 0.00 | 93 | 1010.2 |
| 20260508041404 | 38 | 219 | 0.0 | 0.0 | 0.00 | 0.00 | 0.00 | 93 | 1010.2 |
| 20260508040843 | 38 | 219 | 0.0 | 0.0 | 0.00 | 0.00 | 0.00 | 93 | 1010.1 |
| 20260508040337 | 38 | 219 | 0.0 | 0.0 | 0.00 | 0.00 | 0.00 | 93 | 1010.1 |
| 20260508035906 | 38 | 219 | 0.0 | 0.0 | 0.00 | 0.00 | 0.00 | 92 | 1010.0 |
| 20260508035347 | 38 | 219 | 0.0 | 0.0 | 0.00 | 0.00 | 0.00 | 92 | 1010.0 |
| 20260508034901 | 38 | 219 | 0.0 | 0.0 | 0.00 | 0.00 | 0.00 | 92 | 1010.1 |
| 20260508034336 | 38 | 219 | 0.0 | 0.0 | 0.00 | 0.00 | 0.00 | 92 | 1010.0 |
| 20260508033838 | 38 | 219 | 0.0 | 0.0 | 0.00 | 0.00 | 0.00 | 92 | 1010.1 |
| 20260508033342 | 38 | 219 | 0.0 | 0.0 | 0.00 | 0.00 | 0.00 | 92 | 1010.1 |
| 20260508032842 | 38 | 219 | 0.0 | 0.0 | 0.00 | 0.00 | 0.00 | 92 | 1010.1 |
| 20260508032337 | 38 | 219 | 0.0 | 0.0 | 0.00 | 0.00 | 0.00 | 91 | 1010.1 |
| 20260508031911 | 39 | 219 | 0.0 | 0.0 | 0.00 | 0.00 | 0.00 | 91 | 1010.0 |
| 20260508031357 | 39 | 219 | 0.0 | 0.0 | 0.00 | 0.00 | 0.00 | 91 | 1010.0 |
| 20260508030844 | 39 | 219 | 0.0 | 0.0 | 0.00 | 0.00 | 0.00 | 90 | 1010.0 |
| 20260508030336 | 39 | 219 | 0.0 | 0.0 | 0.00 | 0.00 | 0.00 | 90 | 1010.0 |
| 20260508025903 | 39 | 219 | 0.0 | 0.0 | 0.00 | 0.00 | 0.00 | 90 | 1010.1 |
| 20260508025336 | 39 | 219 | 0.0 | 0.0 | 0.00 | 0.00 | 0.00 | 89 | 1010.1 |
| 20260508024834 | 40 | 219 | 0.0 | 0.0 | 0.00 | 0.00 | 0.00 | 89 | 1010.0 |
| 20260508024350 | 40 | 219 | 0.0 | 0.0 | 0.00 | 0.00 | 0.00 | 89 | 1010.0 |
| 20260508023846 | 40 | 219 | 0.0 | 2.6 | 0.00 | 0.00 | 0.00 | 88 | 1010.0 |
| 20260508023338 | 41 | 219 | 0.0 | 2.6 | 0.00 | 0.00 | 0.00 | 88 | 1010.0 |
| 20260508022842 | 41 | 300 | 0.0 | 4.3 | 0.00 | 0.00 | 0.00 | 88 | 1010.0 |
| 20260508022341 | 41 | 299 | 1.7 | 5.2 | 0.00 | 0.00 | 0.00 | 88 | 1010.0 |
| 20260508021837 | 41 | 165 | 0.0 | 3.5 | 0.00 | 0.00 | 0.00 | 87 | 1010.1 |
| 20260508021334 | 42 | 165 | 1.7 | 3.5 | 0.00 | 0.00 | 0.00 | 87 | 1010.1 |
| 20260508020840 | 42 | 274 | 1.7 | 3.5 | 0.00 | 0.00 | 0.00 | 86 | 1010.0 |
| 20260508020333 | 42 | 137 | 0.0 | 2.6 | 0.00 | 0.00 | 0.00 | 86 | 1010.0 |
| 20260508015844 | 42 | 159 | 0.0 | 1.7 | 0.00 | 0.00 | 0.00 | 85 | 1009.9 |
| 20260508015342 | 42 | 57 | 0.0 | 2.6 | 0.00 | 0.00 | 0.00 | 84 | 1009.9 |
| 20260508014836 | 42 | 57 | 0.9 | 4.3 | 0.00 | 0.00 | 0.00 | 84 | 1009.8 |
| 20260508014353 | 42 | 252 | 1.7 | 4.3 | 0.00 | 0.00 | 0.00 | 84 | 1009.9 |
| 20260508013906 | 42 | 36 | 0.9 | 2.6 | 0.00 | 0.00 | 0.00 | 84 | 1009.9 |
| 20260508013346 | 42 | 219 | 0.9 | 1.7 | 0.00 | 0.00 | 0.00 | 83 | 1009.8 |
| 20260508012834 | 42 | 219 | 0.9 | 2.6 | 0.00 | 0.00 | 0.00 | 82 | 1009.8 |
| 20260508012337 | 42 | 219 | 1.7 | 2.6 | 0.00 | 0.00 | 0.00 | 81 | 1009.8 |
| 20260508011838 | 42 | 219 | 1.7 | 2.6 | 0.00 | 0.00 | 0.00 | 81 | 1009.6 |
| 20260508011351 | 41 | 219 | 0.9 | 2.6 | 0.00 | 0.00 | 0.00 | 80 | 1009.4 |
| 20260508010856 | 41 | 219 | 0.0 | 1.7 | 0.00 | 0.00 | 0.00 | 79 | 1009.4 |
| 20260508010351 | 41 | 219 | 0.0 | 2.6 | 0.00 | 0.00 | 0.00 | 79 | 1009.4 |
| 20260508005906 | 41 | 355 | 0.0 | 3.5 | 0.00 | 0.00 | 0.00 | 77 | 1009.3 |
| 20260508005349 | 42 | 256 | 1.7 | 3.5 | 0.00 | 0.00 | 0.00 | 77 | 1009.2 |
| 20260508004848 | 42 | 215 | 0.9 | 2.6 | 0.00 | 0.00 | 0.00 | 75 | 1009.2 |
| 20260508004345 | 42 | 215 | 1.7 | 2.6 | 0.00 | 0.00 | 0.00 | 74 | 1009.3 |
| 20260508003842 | 42 | 293 | 0.0 | 4.3 | 0.00 | 0.00 | 0.00 | 74 | 1009.1 |
| 20260508003338 | 42 | 244 | 0.9 | 7.0 | 0.00 | 0.00 | 0.00 | 72 | 1008.9 |
| 20260508002853 | 42 | 298 | 2.6 | 7.0 | 0.00 | 0.00 | 0.00 | 71 | 1008.9 |